Previsão horária em Juegangzhen

Hoje, 19 Junho, Sábado

Tempo Temperatura Precipitação Vento Pressão Humidade
00:00 +23°C° 0 mm 1 m/s 752 mmHg 79%
01:00 +23°C° 0 mm 1 m/s 751 mmHg 80%
02:00 +23°C° 0 mm 1 m/s 751 mmHg 80%
03:00 +23°C° 0 mm 1 m/s 751 mmHg 81%
04:00 +22°C° 0 mm 1 m/s 751 mmHg 82%
05:00 +22°C° 0 mm 1 m/s 752 mmHg 83%
06:00 +23°C° 0 mm 1 m/s 752 mmHg 83%
07:00 +23°C° 0 mm 1 m/s 752 mmHg 83%
08:00 +23°C° 0 mm 1 m/s 752 mmHg 84%
09:00 +23°C° 0 mm 2 m/s 752 mmHg 82%
10:00 +24°C° 0 mm 2 m/s 752 mmHg 80%
11:00 +24°C° 0 mm 2 m/s 752 mmHg 78%
12:00 +25°C° 0 mm 2 m/s 752 mmHg 73%
13:00 +26°C° 0 mm 2 m/s 752 mmHg 68%
14:00 +27°C° 0 mm 2 m/s 751 mmHg 63%
15:00 +27°C° 0 mm 3 m/s 751 mmHg 66%
16:00 +26°C° 0 mm 3 m/s 751 mmHg 69%
17:00 +26°C° 0 mm 3 m/s 751 mmHg 71%
18:00 +25°C° 0 mm 3 m/s 752 mmHg 75%
19:00 +24°C° 0 mm 3 m/s 752 mmHg 78%
20:00 +22°C° 0 mm 4 m/s 752 mmHg 81%
21:00 +22°C° 0 mm 3 m/s 752 mmHg 80%
22:00 +22°C° 0 mm 3 m/s 752 mmHg 79%
23:00 +21°C° 0 mm 3 m/s 752 mmHg 78%

Amanhã, 20 Junho, Domingo

Tempo Temperatura Precipitação Vento Pressão Humidade
00:00 +21°C° 0 mm 3 m/s 751 mmHg 78%
01:00 +21°C° 0 mm 3 m/s 751 mmHg 78%
02:00 +21°C° 0 mm 3 m/s 751 mmHg 77%
03:00 +21°C° 0 mm 2 m/s 751 mmHg 78%
04:00 +21°C° 0 mm 2 m/s 751 mmHg 78%
05:00 +22°C° 0 mm 1 m/s 751 mmHg 78%
06:00 +23°C° 0 mm 2 m/s 751 mmHg 74%
07:00 +24°C° 0 mm 2 m/s 752 mmHg 70%
08:00 +25°C° 0 mm 2 m/s 752 mmHg 66%
09:00 +26°C° 0 mm 2 m/s 752 mmHg 61%
10:00 +28°C° 0 mm 3 m/s 752 mmHg 57%
11:00 +29°C° 0 mm 3 m/s 752 mmHg 53%
12:00 +29°C° 0 mm 3 m/s 752 mmHg 50%
13:00 +30°C° 0 mm 3 m/s 751 mmHg 48%
14:00 +30°C° 0 mm 3 m/s 751 mmHg 46%
15:00 +29°C° 0 mm 3 m/s 751 mmHg 47%
16:00 +29°C° 0 mm 3 m/s 751 mmHg 49%
17:00 +28°C° 0 mm 3 m/s 751 mmHg 51%
18:00 +27°C° 0 mm 3 m/s 751 mmHg 55%
19:00 +26°C° 0 mm 3 m/s 752 mmHg 60%
20:00 +25°C° 0 mm 3 m/s 752 mmHg 64%
21:00 +24°C° 0 mm 3 m/s 752 mmHg 67%
22:00 +24°C° 0 mm 3 m/s 752 mmHg 69%
23:00 +24°C° 0 mm 3 m/s 752 mmHg 72%

Depois de amanhã, 21 Junho, Segunda-feira

Tempo Temperatura Precipitação Vento Pressão Humidade
00:00 +24°C° 0 mm 3 m/s 752 mmHg 72%
01:00 +22°C° 0 mm 3 m/s 752 mmHg 73%
02:00 +23°C° 0 mm 2 m/s 752 mmHg 73%
03:00 +23°C° 0 mm 2 m/s 752 mmHg 74%
04:00 +23°C° 0 mm 2 m/s 752 mmHg 74%
05:00 +21°C° 0 mm 2 m/s 752 mmHg 75%
06:00 +24°C° 0 mm 2 m/s 752 mmHg 70%
07:00 +25°C° 0 mm 2 m/s 753 mmHg 64%
08:00 +27°C° 0 mm 2 m/s 753 mmHg 59%
09:00 +28°C° 0 mm 2 m/s 753 mmHg 55%
10:00 +29°C° 0 mm 2 m/s 753 mmHg 50%
11:00 +30°C° 0 mm 3 m/s 753 mmHg 45%
12:00 +29°C° 0 mm 3 m/s 753 mmHg 49%
13:00 +29°C° 0 mm 3 m/s 752 mmHg 52%
14:00 +28°C° 0 mm 3 m/s 752 mmHg 56%
15:00 +28°C° 0 mm 3 m/s 752 mmHg 57%
16:00 +28°C° 0 mm 3 m/s 752 mmHg 59%
17:00 +27°C° 0 mm 3 m/s 752 mmHg 61%
18:00 +26°C° 0 mm 3 m/s 753 mmHg 64%
19:00 +26°C° 0 mm 3 m/s 753 mmHg 66%
20:00 +25°C° 0 mm 3 m/s 753 mmHg 69%
21:00 +24°C° 0 mm 3 m/s 754 mmHg 70%
22:00 +24°C° 0 mm 3 m/s 754 mmHg 72%
23:00 +22°C° 0 mm 3 m/s 754 mmHg 73%

22 Junho, Terça-feira

Tempo Temperatura Precipitação Vento Pressão Humidade
00:00 +23°C° 0 mm 2 m/s 754 mmHg 74%
01:00 +21°C° 0 mm 2 m/s 754 mmHg 75%
02:00 +21°C° 0 mm 2 m/s 753 mmHg 76%
03:00 +21°C° 0 mm 2 m/s 754 mmHg 77%
04:00 +21°C° 0 mm 1 m/s 754 mmHg 77%
05:00 +21°C° 0 mm 1 m/s 754 mmHg 77%
06:00 +23°C° 0 mm 1 m/s 754 mmHg 70%
07:00 +25°C° 0 mm 1 m/s 755 mmHg 62%
08:00 +27°C° 0 mm 2 m/s 755 mmHg 55%
09:00 +28°C° 0 mm 2 m/s 755 mmHg 51%
10:00 +29°C° 0 mm 2 m/s 755 mmHg 46%
11:00 +30°C° 0 mm 3 m/s 755 mmHg 42%
12:00 +30°C° 0 mm 3 m/s 755 mmHg 43%
13:00 +30°C° 0 mm 3 m/s 755 mmHg 43%
14:00 +30°C° 0 mm 4 m/s 755 mmHg 44%
15:00 +30°C° 0 mm 4 m/s 755 mmHg 46%
16:00 +29°C° 0 mm 4 m/s 755 mmHg 48%
17:00 +28°C° 0 mm 4 m/s 755 mmHg 51%
18:00 +27°C° 0 mm 4 m/s 755 mmHg 57%
19:00 +26°C° 0 mm 4 m/s 755 mmHg 63%
20:00 +24°C° 0 mm 3 m/s 755 mmHg 69%
21:00 +24°C° 0 mm 3 m/s 756 mmHg 71%
22:00 +22°C° 0 mm 3 m/s 756 mmHg 73%
23:00 +22°C° 0 mm 3 m/s 756 mmHg 74%

23 Junho, Quarta-feira

Tempo Temperatura Precipitação Vento Pressão Humidade
00:00 +22°C° 0 mm 3 m/s 756 mmHg 75%
01:00 +23°C° 0 mm 2 m/s 756 mmHg 75%
02:00 +21°C° 0 mm 2 m/s 756 mmHg 76%
03:00 +22°C° 0 mm 1 m/s 756 mmHg 75%
04:00 +22°C° 0 mm 1 m/s 756 mmHg 75%
05:00 +22°C° 0 mm 1 m/s 756 mmHg 74%
06:00 +24°C° 0 mm 1 m/s 756 mmHg 68%
07:00 +26°C° 0 mm 1 m/s 756 mmHg 61%
08:00 +27°C° 0 mm 2 m/s 757 mmHg 55%
09:00 +28°C° 0 mm 2 m/s 757 mmHg 52%
10:00 +29°C° 0 mm 2 m/s 757 mmHg 49%
11:00 +30°C° 0 mm 3 m/s 757 mmHg 46%
12:00 +30°C° 0 mm 3 m/s 757 mmHg 46%
13:00 +31°C° 0 mm 3 m/s 756 mmHg 47%
14:00 +32°C° 0 mm 4 m/s 756 mmHg 47%
15:00 +30°C° 0 mm 4 m/s 756 mmHg 49%
16:00 +29°C° 0 mm 4 m/s 756 mmHg 52%
17:00 +29°C° 0 mm 4 m/s 756 mmHg 54%
18:00 +27°C° 0 mm 4 m/s 756 mmHg 62%
19:00 +26°C° 0 mm 4 m/s 756 mmHg 69%
20:00 +23°C° 0 mm 4 m/s 756 mmHg 76%
21:00 +24°C° 0 mm 3 m/s 756 mmHg 78%
22:00 +24°C° 0 mm 3 m/s 756 mmHg 80%
23:00 +22°C° 0 mm 3 m/s 756 mmHg 81%

24 Junho, Quinta-feira

Tempo Temperatura Precipitação Vento Pressão Humidade
00:00 +22°C° 0 mm 3 m/s 756 mmHg 83%
01:00 +22°C° 0 mm 3 m/s 755 mmHg 84%
02:00 +21°C° 0 mm 3 m/s 755 mmHg 85%
03:00 +21°C° 0 mm 2 m/s 755 mmHg 87%
04:00 +21°C° 0 mm 2 m/s 755 mmHg 88%
05:00 +22°C° 0 mm 1 m/s 755 mmHg 89%
06:00 +24°C° 0 mm 1 m/s 756 mmHg 81%
07:00 +26°C° 0 mm 1 m/s 756 mmHg 73%
08:00 +27°C° 0 mm 2 m/s 756 mmHg 65%
09:00 +28°C° 0 mm 2 m/s 756 mmHg 60%
10:00 +29°C° 0 mm 3 m/s 756 mmHg 55%
11:00 +30°C° 0 mm 4 m/s 756 mmHg 50%
12:00 +30°C° 0 mm 4 m/s 755 mmHg 50%
13:00 +30°C° 0 mm 4 m/s 755 mmHg 50%
14:00 +30°C° 0 mm 5 m/s 755 mmHg 49%
15:00 +29°C° 0 mm 5 m/s 755 mmHg 52%
16:00 +29°C° 0 mm 5 m/s 754 mmHg 54%
17:00 +28°C° 0 mm 5 m/s 754 mmHg 57%
18:00 +27°C° 0 mm 5 m/s 754 mmHg 64%
19:00 +25°C° 0 mm 4 m/s 754 mmHg 71%
20:00 +23°C° 0 mm 4 m/s 755 mmHg 78%
21:00 +23°C° 0 mm 4 m/s 755 mmHg 80%
22:00 +22°C° 0 mm 4 m/s 755 mmHg 82%
23:00 +22°C° 0 mm 3 m/s 755 mmHg 84%
Mostrar mais

Necessitamos do seu Consentimento

A Meteoprog e os seus Fornecedores de Serviços podem armazenar e aceder a dados pessoais como cookies, identificadores do dispositivo ou outras tecnologias semelhantes existentes no seu dispositivo e processar estes dados para personalizar conteúdos e anúncios, assim como funcionalidades nas redes sociais e análise de tráfego.

  • Armazenar e/ou aceder a informações no seu dispositivo

    Os cookies, identificadores do dispositivo ou outras informações podem ser armazenados ou acedidos no seu dispositivo, para os fins acima indicados.

  • Anúncios e conteúdos personalizados, medição de anúncios e conteúdos, dados sobre o público-alvo e desenvolvimento de produtos

    Os anúncios e os conteúdos podem ser personalizados com base num perfil. Podem ser adicionados dados adicionais para uma maior personalização dos anúncios e dos conteúdos. A eficácia dos anúncios e dos conteúdos pode ser medida. Podem ser obtidas informações sobre o público que visualizou os anúncios e os conteúdos. Estes dados podem ser usados para desenvolver ou melhorar sistemas, softwares ou a experiência do utilizador.

Ao clicar em "Eu concordo”, permitirá o uso de cookies, identificadores do dispositivo e web beacons mencionados ou outras tecnologias semelhantes. As configurações do navegador do seu dispositivo podem ser alteradas.

Para certos fins, podem ser invocados interesses legítimos ao invés de consentimento. Pode ler mais informação sobre este assunto na nossa Política de Privacidade e Cookies.